User: anonymous   Login
Location: Unspecified
(0.0000°N, 0.0000°E)
Time: 13:34:29
(UTC+00:00)
Language:

NOAA 19 - Orbit

View from above orbital plane
View from above orbital plane
View from above satellite
View from above satellite

Ground track
Ground track

The orbit data is extracted from the following two-line orbital elements,

1 33591U 09005A   18173.94956981 +.00000095 +00000-0 +76653-4 0  9991
2 33591 099.1420 152.0906 0013208 314.1571 045.8513 14.12287557482728
Epoch (UTC): 22 June 2018 22:47:22
Eccentricity: 0.0013208
inclination: 99.1420°
perigee height: 842 km
apogee height: 861 km
right ascension of ascending node: 152.0906°
argument of perigee: 314.1571°
revolutions per day: 14.12287557
mean anomaly at epoch: 45.8513°
orbit number at epoch: 48272

The dashed part of the orbit path shows where the satellite is in the earth's shadow,  

DLR